Regional Weather Roundup
Issued by NWS

Home | Current Version | Previous Version | Text Only | Print | Product List | Glossary Off
Versions: 1 2 3 4 5 6 7 8 9 10 11 12 13 14 15 16 17 18 19 20 21 22 23 24 25 26 27 28 29 30 31 32 33 34 35 36 37 38 39 40 41 42 43 44 45 46 47 48 49 50

000
ASUS43 KLOT 260806
RWRIL

ILLINOIS REGIONAL WEATHER ROUNDUP
NATIONAL WEATHER SERVICE CHICAGO/ROMEOVILLE IL
200 AM CST MON JAN 26 2015

NOTE: "FAIR" INDICATES FEW OR NO CLOUDS BELOW 12,000 FEET WITH NO
SIGNIFICANT WEATHER AND/OR OBSTRUCTIONS TO VISIBILITY.

* THESE STATIONS ARE NOT UNDER NWS QUALITY CONTROL. THEY ALSO MAY NOT
  REPORT WEATHER SUCH AS PRECIPITATION OR FOG.

ILZ001-002-007-009-015-016-024-260900-
NORTHWEST ILLINOIS

CITY           SKY/WX    TMP DP  RH WIND       PRES   REMARKS
MOLINE         MOCLDY    18  11  74 CALM      30.05F
STERLING*      MOCLDY    18  10  73 NW5       30.03F WCI  11
SAVANNA*       PTCLDY    18  12  79 CALM      30.04F
$$

ILZ003-004-008-010-011-017-018-260900-
NORTH CENTRAL ILLINOIS

CITY           SKY/WX    TMP DP  RH WIND       PRES   REMARKS
ROCKFORD       PTCLDY    15   9  76 N7        30.03F WCI   5
FREEPORT*      PTCLDY    14  10  85 NW3       30.04F
ROCHELLE*      PTCLDY    15  11  85 N6        30.01F WCI   6
DE KALB*       PTCLDY    14  10  85 NW6       30.00R WCI   5
PERU*          MOCLDY    18  14  82 N12       30.04R WCI   6
$$

ILZ005-006-012>014-019>023-260900-
NORTHEAST ILLINOIS

CITY           SKY/WX    TMP DP  RH WIND       PRES   REMARKS
CHICAGO-OHARE  MOCLDY    24  15  68 NE12      29.98S WCI  13
CHICAGO-MIDWAY MOCLDY    25  17  72 NE7       29.99R WCI  17
AURORA         FAIR      16  10  77 NW7       30.00S WCI   6
LANSING*       CLOUDY    23  17  77 NE7       29.99R WCI  15
JOLIET*        MOCLDY    20  16  84 CALM      30.00F
WAUKEGAN       CLOUDY    22  15  75 NE6       29.99S WCI  14
DUPAGE AIRPORT PTCLDY    16  11  80 NW6       29.99R WCI   7
KANKAKEE*      CLOUDY    25  19  77 N7        29.99R WCI  17
WHEELING       CLOUDY    24  15  68 NE7       30.00F WCI  16
MORRIS*        PTCLDY    19  16  87 N5        29.99S WCI  12
ROMEOVILLE*    CLOUDY    20  16  83 NW6       29.99S WCI  12
NORTHERLY ISL    N/A     24  16  71 N9          N/A  WCI  15
$$

LMZ740>746-260900-
SOUTHERN LAKE MICHIGAN

STATION/POSITION SKY/WX   TEMP    WIND        PRES    VSBY  WAVE
                          AIR SEA DIR/SP/G                  HT/PER
                          (F)     (DEG/KT/KT) (MB)    (MI)  (FT/S)
WAUKEGAN HARBOR            24      70/  9/ 12   N/A
HARRISON CRIB              24      40/  9/ 12   N/A
BURNHAM HARBOR             24      40/  8/ 14   N/A
CALUMET HARBOR             24      40/ 10/ 12   N/A
MICHIGAN CITY              19      40/ 12/ 14   N/A
$$

ILZ025>027-034>036-040-047-049-050-058-095>099-260900-
WEST-CENTRAL ILLINOIS

CITY           SKY/WX    TMP DP  RH WIND       PRES   REMARKS
QUINCY         CLOUDY    25  20  81 NW7       30.06R WCI  17
GALESBURG*     MOCLDY    19  17  88 N7        30.05S WCI  10
MACOMB*        MOCLDY    23  19  83 N9        30.08R WCI  13
JACKSONVILLE*  MOCLDY    27  20  75 NW10      30.05R WCI  17
PITTSFIELD*    PTCLDY    26  23  87 NW7       30.05S WCI  19
$$

ILZ028>032-037-038-041>044-048-051>054-059>061-260900-
CENTRAL ILLINOIS

CITY           SKY/WX    TMP DP  RH WIND       PRES   REMARKS
PONTIAC        CLOUDY    23  19  86 NW8       30.01R WCI  14
BLOOMINGTON    MOCLDY    21  18  88 N12       30.00R WCI   9
DECATUR        CLOUDY    28  26  92 N9        29.99R WCI  19
PEORIA         MOCLDY    22  14  71 N6        30.04R WCI  14
LACON*         MOCLDY    19  13  78 N9        30.04R WCI   8
LINCOLN*       CLOUDY    25  20  82 NW6       30.04R WCI  18
SPRINGFIELD    CLOUDY    24  18  77 NW9       30.03R WCI  14
TAYLORVILLE    CLOUDY    27  21  80 N15       30.01R WCI  15
$$

ILZ033-039-045-046-055>057-062-063-260900-
EAST-CENTRAL ILLINOIS

CITY           SKY/WX    TMP DP  RH WIND       PRES   REMARKS
CHAMPAIGN      CLOUDY    28  22  78 N10       29.97R WCI  19
DANVILLE*      CLOUDY    26  21  83 N10       29.93R WCI  15
RANTOUL*       CLOUDY    29  24  81 N12       29.97R WCI  20
MATTOON        CLOUDY    28  23  81 N14       29.94R WCI  17
PARIS*         CLOUDY    28  24  88 NE9       29.94S WCI  19
$$

ILZ079-100>102-260900-
SOUTHWEST ILLINOIS

CITY           SKY/WX    TMP DP  RH WIND       PRES   REMARKS
ALTON          MOCLDY    28  22  79 NW7       30.04R WCI  20
BELLEVILLE     MOCLDY    28  24  85 NW10      30.02R WCI  19
CAHOKIA*       MOCLDY    30  23  75 NW13      30.05R WCI  20
SPARTA*        CLOUDY    30  24  81 NW13G23   30.01S WCI  20
$$

ILZ064>066-069>071-074>076-080>082-084>086-088>090-092>094-260900-
SOUTH-CENTRAL ILLINOIS

CITY           SKY/WX    TMP DP  RH WIND       PRES   REMARKS
CARBONDALE     CLOUDY    32  26  78 NW13      29.99R WCI  22
CAIRO*         CLOUDY    36  31  83 NW20G26   29.98R WCI  25
EFFINGHAM*     CLOUDY    31  23  74 NW12      29.97R WCI  21
MARION         CLOUDY    34  28  80 NW13      29.98R WCI  25
MT. VERNON     CLOUDY    30  23  74 N6        29.97R WCI  24
CENTRALIA*     CLOUDY    30  25  81 NW16      29.98R WCI  19
SALEM*         CLOUDY    32  27  82 N14       29.98R WCI  22
METROPOLIS*    CLOUDY    34  33  96 NW14G21   29.94R WCI  25
$$

ILZ067-068-072-073-078-083-087-091-260900-
SOUTHEAST ILLINOIS

CITY           SKY/WX    TMP DP  RH WIND       PRES   REMARKS
LAWRENCEVILLE  CLOUDY    29  23  78 N13       29.93R WCI  19
FLORA*         CLOUDY    31  26  83 N17       29.96R WCI  19
FAIRFIELD*     CLOUDY    32  27  82 N10       29.94R WCI  24
HARRISBURG*    CLOUDY    32  30  92 NW10G18   29.96R WCI  24
ROBINSON*      CLOUDY    29  24  82 N16       29.93S WCI  17
$$

ABBREVIATIONS USED IN REMARKS
   TC - TEMPERATURE IN CELSIUS
  WCI - WIND CHILL INDEX
   HX - HEAT INDEX
  VSB - VISIBILITY
$$



USA.gov is the U.S. government's official web portal to all federal, state and local government web resources and services.